This demonstration page uses our WeatherBlox Daily Observations layout. Learn more.

Left ArrowRight Arrow

40.92945, -100.16068

Hourly Observations for February 22, 2020

Temp ( °F °C ) Dew Point ( °F °C ) Humidity (%) Winds ( mph kmh ) Pressure ( in mb ) Visibility ( mi km ) Precip ( " mm )
12:15 am 00:15 Clear 25 -3.8 23 -5.2 90 90 N N/A 30.26 1025 10 16 N/A
12:35 am 00:35 Clear 23 -4.8 22 -5.8 93 93 N N/A 30.27 1025 10 16 N/A
12:55 am 00:55 Clear 25 -4.1 21 -6.1 86 86 N N/A 30.25 1024 10 16 N/A
1:15 am 01:15 Clear 28 -2.4 25 -3.9 90 90 N N/A 30.23 1024 10 16 N/A
1:35 am 01:35 Clear 24 -4.5 22 -5.6 92 92 N N/A 30.24 1024 10 16 N/A
1:55 am 01:55 Clear 24 -4.3 22 -5.3 93 93 N N/A 30.24 1024 10 16 N/A
2:15 am 02:15 Clear 26 -3.5 24 -4.2 95 95 N N/A 30.22 1023 10 16 N/A
2:35 am 02:35 Clear 25 -3.8 24 -4.7 94 94 N N/A 30.22 1023 7 11 N/A
2:55 am 02:55 Clear 24 -4.7 22 -5.3 96 96 N N/A 30.21 1023 7 11 N/A
3:15 am 03:15 Clear 22 -5.5 21 -6.2 95 95 N N/A 30.21 1023 7 11 N/A
3:35 am 03:35 Clear 21 -5.9 20 -6.6 95 95 SSE 3 6 30.22 1023 7 11 N/A
3:55 am 03:55 Clear 23 -5.2 22 -5.6 97 97 N N/A 30.21 1023 7 11 N/A
4:15 am 04:15 Clear 22 -5.4 21 -5.9 96 96 N N/A 30.20 1023 7 11 N/A
4:35 am 04:35 Clear 19 -7.5 17 -8.2 95 95 N N/A 30.22 1023 7 11 N/A
4:55 am 04:55 Clear 19 -7.1 18 -7.9 94 94 N N/A 30.22 1023 7 11 N/A
5:15 am 05:15 Clear 19 -7.1 18 -7.7 96 96 W 3 6 30.21 1023 7 11 N/A
5:35 am 05:35 Clear 19 -7.5 17 -8.2 95 95 NW 3 6 30.22 1023 10 16 N/A
5:55 am 05:55 Clear 19 -7 18 -7.8 94 94 W 3 6 30.22 1023 7 11 N/A
6:15 am 06:15 Clear 19 -7.2 18 -8 94 94 NW 3 6 30.22 1023 7 11 N/A
6:35 am 06:35 Clear 19 -7 18 -7.6 96 96 WNW 6 9 30.21 1023 7 11 N/A
6:55 am 06:55 Clear 20 -6.6 19 -7.1 96 96 NW 8 13 30.20 1023 7 11 N/A
7:15 am 07:15 Clear 21 -6 20 -6.8 94 94 NW 5 7 30.19 1022 7 11 N/A
7:35 am 07:35 Sunny 21 -6.2 20 -6.9 95 95 W 6 9 30.19 1022 7 11 N/A
7:55 am 07:55 Sunny 22 -5.4 21 -6.1 95 95 W 6 9 30.18 1022 7 11 N/A
8:15 am 08:15 Sunny 23 -5.1 21 -6 93 93 W 5 7 30.18 1022 7 11 N/A
8:35 am 08:35 Sunny 25 -4 23 -4.9 94 94 W 3 6 30.18 1022 7 11 N/A
8:55 am 08:55 Sunny 27 -2.6 25 -3.7 92 92 WNW 5 7 30.17 1022 10 16 N/A
9:15 am 09:15 Sunny 29 -1.4 27 -3 89 89 WNW 6 9 30.16 1021 10 16 N/A
9:35 am 09:35 Sunny 31 -0.4 28 -2.3 87 87 NW 6 9 30.15 1021 10 16 N/A
9:55 am 09:55 Sunny 33 0.5 29 -1.7 85 85 N N/A 30.13 1020 10 16 N/A
10:15 am 10:15 Sunny 36 2.1 30 -1.3 78 78 N N/A 30.12 1020 10 16 N/A
10:35 am 10:35 Sunny 39 3.9 30 -1.3 69 69 N N/A 30.09 1019 10 16 N/A
10:55 am 10:55 Sunny 48 8.8 30 -1 51 51 SSW 6 9 30.03 1017 10 16 N/A
11:15 am 11:15 Sunny 52 10.9 31 -0.8 45 45 N N/A 30.00 1016 10 16 N/A
11:35 am 11:35 Sunny 53 11.8 31 -0.7 42 42 NW 5 7 29.98 1015 10 16 N/A
11:55 am 11:55 Sunny 57 14 32 -0.2 38 38 NNW 10 17 29.96 1015 10 16 N/A
12:15 pm 12:15 Sunny 61 15.9 29 -1.6 30 30 WNW 12 19 29.94 1014 10 16 N/A
12:35 pm 12:35 Sunny 62 16.5 29 -1.7 29 29 WNW 13 20 29.92 1013 10 16 N/A
12:55 pm 12:55 Sunny 62 16.5 29 -1.9 29 29 NW 14 22 29.91 1013 10 16 N/A
1:15 pm 13:15 Sunny 62 16.6 29 -1.6 29 29 NW 20 31 29.90 1013 10 16 N/A
1:35 pm 13:35 Sunny 63 17.3 22 -5.3 21 21 WNW 18 30 29.89 1012 10 16 N/A
1:55 pm 13:55 Sunny 64 17.7 18 -7.6 17 17 WNW 16 26 29.87 1012 10 16 N/A
2:15 pm 14:15 Sunny 63 17 24 -4.7 22 22 WNW 16 26 29.88 1012 10 16 N/A
2:35 pm 14:35 Sunny 62 16.7 24 -4.6 23 23 NW 18 30 29.87 1012 10 16 N/A
2:55 pm 14:55 Sunny 62 16.5 23 -4.8 23 23 NW 18 30 29.88 1012 10 16 N/A
3:15 pm 15:15 Sunny 61 16.1 22 -5.5 22 22 NW 20 31 29.89 1012 10 16 N/A
3:35 pm 15:35 Sunny 61 16 22 -5.7 22 22 NW 15 24 29.89 1012 10 16 N/A
3:55 pm 15:55 Sunny 60 15.7 22 -5.6 23 23 WNW 14 22 29.89 1012 10 16 N/A
4:15 pm 16:15 Sunny 60 15.5 21 -6 22 22 NNW 13 20 29.90 1013 10 16 N/A
4:35 pm 16:35 Sunny 59 15.2 21 -6.1 23 23 NNW 14 22 29.90 1013 10 16 N/A
4:55 pm 16:55 Sunny 59 14.9 22 -5.8 24 24 NW 12 19 29.91 1013 10 16 N/A
5:15 pm 17:15 Sunny 58 14.4 23 -5.2 26 26 NW 9 15 29.92 1013 10 16 N/A
5:35 pm 17:35 Sunny 56 13.1 24 -4.6 29 29 WNW 7 11 29.93 1014 10 16 N/A
5:55 pm 17:55 Sunny 53 11.5 24 -4.3 33 33 WNW 6 9 29.95 1014 10 16 N/A
6:15 pm 18:15 Sunny 49 9.5 24 -4.5 37 37 NW 7 11 29.96 1014 10 16 N/A
6:35 pm 18:35 Clear 44 6.4 23 -5.2 44 44 N N/A 29.98 1015 10 16 N/A
6:55 pm 18:55 Clear 47 8.1 23 -4.9 40 40 NNW 3 6 29.97 1015 10 16 N/A
7:15 pm 19:15 Clear 38 3.1 22 -5.7 53 53 N N/A 30.03 1017 10 16 N/A
7:35 pm 19:35 Clear 34 1.3 22 -5.7 60 60 SW 3 6 30.04 1017 10 16 N/A
7:55 pm 19:55 Clear 33 0.6 21 -5.9 62 62 SSW 5 7 30.06 1018 10 16 N/A
8:15 pm 20:15 Clear 35 1.5 21 -6 58 58 N N/A 30.05 1018 10 16 N/A
8:35 pm 20:35 Clear 34 1.2 21 -6.3 58 58 N N/A 30.06 1018 10 16 N/A
8:55 pm 20:55 Clear 30 -1 21 -6 69 69 NE 3 6 30.07 1018 10 16 N/A
9:15 pm 21:15 Clear 32 0.2 22 -5.3 67 67 NNE 8 13 30.05 1018 10 16 N/A
9:35 pm 21:35 Clear 31 -0.3 21 -6.3 64 64 N N/A 30.07 1018 10 16 N/A
9:55 pm 21:55 Clear 29 -1.9 21 -6 74 74 WSW 3 6 30.09 1019 10 16 N/A
10:15 pm 22:15 Clear 28 -2.3 22 -5.4 80 80 N N/A 30.09 1019 10 16 N/A
10:35 pm 22:35 Clear 29 -1.7 22 -5.6 75 75 N N/A 30.07 1018 10 16 N/A
10:55 pm 22:55 Clear 29 -1.8 21 -5.9 74 74 N N/A 30.07 1018 10 16 N/A
11:15 pm 23:15 Clear 27 -2.7 21 -6.1 78 78 N 3 6 30.07 1018 10 16 N/A
11:35 pm 23:35 Clear 27 -2.9 21 -6 79 79 N 5 7 30.08 1018 10 16 N/A
11:55 pm 23:55 Clear 26 -3.1 21 -6.1 80 80 NNW 5 7 30.08 1019 10 16 N/A

Powered by AerisWeather